Regional Weather Roundup
Issued by NWS

Home | Current Version | Previous Version | Text Only | Print | Product List | Glossary On
Versions: 1 2 3 4 5 6 7 8 9 10 11 12 13 14 15 16 17 18 19 20 21 22 23 24 25 26 27
000
ASUS46 KSEW 101110
RWRWA

WASHINGTON REGIONAL WEATHER ROUNDUP
NATIONAL WEATHER SERVICE SEATTLE WA
300 AM PST SAT DEC 10 2016

NOTE:"FAIR" INDICATES FEW OR NO CLOUDS BELOW 12,000 FEET WITH NO
SIGNIFICANT WEATHER AND/OR OBSTRUCTIONS TO VISIBILITY.

WAZ507-509-555>559-101200-
SEATTLE, TACOMA, EVERETT, AND VICINITY

CITY           SKY/WX    TMP DP  RH WIND       PRES   REMARKS
EVERETT        CLOUDY    33  32  96 E8        29.82R
BOEING FIELD   PTCLDY    36  35  96 SE13      29.84R
RENTON         PTCLDY    34  32  92 SE6       29.84S
SEATAC AIRPORT MOCLDY    36  35  96 S10       29.82S
JBLM-MCCHORD   CLOUDY    35  35 100 S8        29.84R
PUYALLUP       CLOUDY    36  36 100 CALM      29.83S
BREMERTON      CLOUDY    37  36  93 SW8       29.85R
JBLM-FT LEWIS  PTCLDY    34  34 100 SE7       29.84R
TACOMA NARROWS LGT RAIN  39  38  96 S10       29.84R
$$

WAZ001-503-506-510-514-515-101200-
NORTH INTERIOR

CITY           SKY/WX    TMP DP  RH WIND       PRES   REMARKS
BELLINGHAM     CLOUDY    31  30  96 CALM      29.81S
FRIDAY HARBOR  CLOUDY    40  38  93 SE6       29.82R
EASTSOUND      PTCLDY    39  37  93 SW10      29.79S
PORT ANGELES   CLOUDY    36  35  96 SW8       29.79S
EDIZ HOOK      PTSUNNY   38  35  91 CALM      29.81R
PORT TOWNSEND    N/A     36  36 100 CALM      29.82S
NAS WHIDBEY    MOCLDY    38  33  82 SE12      29.86R
ARLINGTON      CLOUDY    36  27  69 SW3       29.86R
BURLINGTON     CLOUDY    37  36  93 SE3       29.84R
$$

WAZ020-022-039-040-504-511-512-101200-
SOUTHWEST INTERIOR

CITY           SKY/WX    TMP DP  RH WIND       PRES   REMARKS
SHELTON        CLOUDY    35  34  96 SW3       29.82R
OLYMPIA        PTCLDY    35  35 100 SW7       29.85R
CHEHALIS       NOT AVBL
KELSO          CLOUDY    35  34  96 SE10      29.91R WCI  27
VANCOUVER      CLOUDY    33  31  92 SE5       29.91S
SCAPPOOSE, OR  CLOUDY    33  32  96 S5        29.91S FOG
PORTLAND, OR   LGT RAIN  32  31  96 SE8       29.93S
$$

WAZ021-516-517-101200-
WASHINGTON COAST

CITY           SKY/WX    TMP DP  RH WIND       PRES   REMARKS
FORKS          MOCLDY    36  35  96 SE5       29.80R
HOQUIAM        PTCLDY    36  36 100 NE7       29.84R FOG
ASTORIA, OR    MOCLDY    39  35  86 CALM      29.86R
$$

WAZ019-023-024-040-567>569-101200-
CASCADE MOUNTAINS AND COLUMBIA GORGE

CITY           SKY/WX    TMP DP  RH WIND       PRES   REMARKS
STAMPEDE PASS  LGT SNOW  14  13  95 CALM      29.72F FOG
TROUTDALE, OR  CLOUDY    32  29  88 E17G25    29.92F WCI  21
THE DALLES, OR LGT SNOW  26  24  92 CALM      29.99S FOG
$$

WAZ026-027-041>044-520-521-101200-
EAST SLOPES

CITY           SKY/WX    TMP DP  RH WIND       PRES   REMARKS
OMAK           MOCLDY    17  13  84 E5        29.90F
WENATCHEE      CLOUDY    21  20  96 NW6       29.91F
ELLENSBURG     CLOUDY    21  17  84 CALM      29.86F
YAKIMA         MOCLDY    22  18  85 SW3       29.92F
$$

WAZ028-034-035-101200-
COLUMBIA BASIN

CITY           SKY/WX    TMP DP  RH WIND       PRES   REMARKS
EPHRATA        FLURRIES  22  15  75 NW10      29.89F WCI  11
MOSES LAKE     LGT SNOW  23  20  88 NW7       29.90F FOG
PASCO          LGT SNOW  25  24  96 W5        29.98R FOG
HERMISTON, OR  CLOUDY    24  22  91 SW3       29.94S FOG
$$

WAZ036>038-101200-
NORTHEAST WASHINGTON

CITY           SKY/WX    TMP DP  RH WIND       PRES   REMARKS
SPOKANE GEIGER LGT SNOW  19  16  88 N6        29.81F VSB 1
SPOKANE FELTS  LGT SNOW  21  19  92 CALM      29.84F FOG
FAIRCHILD AFB  LGT SNOW  18  18 100 N5        29.78F FOG
COEURDALENE,ID LGT SNOW  18  16  93 N17       29.80F FOG     WCI   2
DEER PARK      LGT SNOW  20  15  81 N7        29.83F
$$

WAZ029>033-101200-
SOUTHEAST WASHINGTON

CITY           SKY/WX    TMP DP  RH WIND       PRES   REMARKS
PULLMAN        CLOUDY    32  29  88 E10       29.77F WCI  24
LEWISTON, ID   CLOUDY    26  23  88 W5        29.81F
WALLA WALLA    FRZ RAIN  22  20  92 W5        29.88F FOG
PENDLETON, OR  CLOUDY    21  19  92 W8        29.88S FOG
$$




USA.gov is the U.S. government's official web portal to all federal, state and local government web resources and services.